Wind_Speed
39 42 42 44 44 45 47 49 49 51 53 50 47 47 48 48 46 43 42 46 43 45 40 42 44 48 41 48 49 44 44 48 47 46 46 44 47 47 45 45 45 48 50
28 29 33 41 46 48 48 48 48 49 50 49 52 53 45 47 48 48 46 42 42 43 41 42 44 42 42 46 47 42 43 46 47 46 45 49 49 52 53 53 53 56 56
20 22 23 24 24 28 33 38 44 50 51 50 50 51 48 46 40 43 45 42 43 41 42 42 42 41 41 41 40 43 51 48 46 47 49 53 57 57 58 56 55 55 54
25 27 28 28 30 34 37 39 40 38 40 42 48 49 45 45 47 45 36 36 36 37 37 38 40 43 49 52 55 56 56 59 60 58 61 62 62 63 66 66 60 59 58
24 26 30 33 35 38 43 46 48 46 44 45 41 46 42 35 34 37 37 33 31 33 36 37 41 44 46 50 44 41 43 43 42 42 40 41 43 45 50 53 58 59 58
21 24 29 37 37 22 32 41 42 45 42 40 35 38 38 33 26 27 27 27 30 31 31 28 27 29 30 31 30 32 30 30 32 34 39 42 47 51 54 58 60 62 64
11 18 14 8 12 19 17 14 20 24 18 19 24 26 22 28 23 25 27 29 28 24 27 25 26 22 21 25 25 26 30 34 40 44 48 51 53 55 57 61 64 68 69
9 7 1 15 10 9 4 3 19 9 5 7 14 17 18 21 19 18 12 16 21 17 12 14 16 16 18 21 27 33 39 42 46 50 54 57 58 57 57 61 65 67 71
5 3 7 3 11 6 13 13 11 16 10 11 11 4 5 7 10 8 5 5 6 9 8 10 14 16 19 25 32 36 39 46 51 54 55 54 54 56 59 62 65 62 64
1 9 11 10 9 7 7 11 18 19 19 11 11 10 9 6 4 4 6 6 7 8 10 12 15 18 22 29 32 36 40 46 48 50 50 52 54 58 62 65 68 57 59
20 20 17 20 18 13 22 22 20 18 16 13 10 7 5 3 3 4 5 6 8 10 12 15 18 22 27 28 32 36 42 44 47 46 47 51 55 59 62 71 63 52 50
20 26 26 22 23 20 17 15 13 11 9 8 6 6 4 3 0 2 4 7 8 11 14 18 22 26 29 30 35 38 42 43 45 47 49 50 53 54 58 72 56 48 48
18 18 17 16 16 14 12 10 9 8 7 8 7 6 6 6 6 6 6 8 11 16 20 23 24 26 30 32 37 40 43 44 43 48 49 50 52 52 57 67 54 45 44
15 15 15 13 12 11 10 8 7 7 6 4 5 5 4 6 8 11 13 16 18 19 22 25 27 31 32 35 37 40 41 43 44 45 47 48 49 52 57 62 53 44 41
11 11 11 11 11 10 10 9 8 7 6 5 5 6 8 9 11 14 16 17 20 23 25 28 30 33 35 36 38 40 42 44 46 47 47 48 46 50 52 56 56 44 39
9 9 8 8 8 8 8 8 9 9 10 10 10 11 13 15 17 19 22 24 25 26 28 30 32 33 35 37 38 40 41 43 45 47 45 46 46 44 47 47 55 47 39
2 3 4 5 6 8 9 10 11 13 14 15 16 17 18 20 21 22 24 25 27 29 31 33 34 35 36 38 40 42 42 43 45 47 45 46 44 41 40 42 44 50 42
12 13 13 14 15 15 15 16 17 17 18 19 20 22 23 25 26 27 29 30 32 33 32 34 36 37 38 40 42 43 45 44 44 46 46 45 46 42 39 37 36 40 44
19 20 20 21 21 21 21 22 22 23 24 25 26 27 28 29 31 32 34 35 36 37 38 38 38 39 41 43 43 45 48 47 46 47 47 45 44 43 38 36 31 31 35
27 27 27 28 28 28 29 29 30 30 31 32 32 33 34 36 37 39 41 42 44 45 45 46 46 45 43 44 46 46 49 50 47 47 49 46 43 43 41 36 34 27 28
33 34 34 35 36 36 36 37 37 37 38 39 39 40 41 42 43 44 46 48 49 50 51 51 51 49 48 47 44 48 48 51 49 46 48 46 45 43 42 40 36 32 28
38 39 40 41 41 42 43 43 44 44 45 46 47 48 48 49 50 51 52 52 53 54 55 55 54 54 51 50 49 46 48 47 49 47 47 47 46 45 44 41 39 36 34
43 43 44 44 44 44 44 45 46 47 48 49 50 51 52 53 54 55 56 57 57 57 57 57 57 55 53 52 51 49 50 47 48 49 48 47 47 46 43 41 38 36 36
49 49 48 49 49 48 48 49 49 49 50 51 52 54 54 55 56 57 58 60 61 59 60 60 59 57 54 53 52 50 50 49 48 48 49 48 46 45 44 40 38 36 35
54 54 54 54 54 53 52 52 53 53 54 54 54 56 57 58 59 60 58 62 63 62 60 59 60 56 54 54 53 52 51 49 50 50 49 48 47 46 44 42 38 35 36
58 58 57 56 56 57 58 58 56 57 59 58 58 60 60 60 62 64 60 63 63 64 60 59 58 55 53 53 52 52 52 52 52 52 51 51 49 47 45 43 41 37 35
Wind_Direction
252 251 250 250 250 251 253 255 255 256 254 253 255 258 257 257 259 259 258 261 266 269 270 268 275 287 283 279 287 293 288 297 295 293 291 288 287 289 288 288 279 274 273
254 255 254 256 255 253 253 255 256 256 258 258 257 253 255 257 258 259 261 260 261 262 267 271 274 278 279 283 284 278 280 283 276 279 280 286 288 287 287 289 286 287 283
251 246 249 252 255 255 253 256 257 256 255 257 259 262 261 254 260 262 263 264 265 267 268 270 272 275 273 280 283 277 277 282 283 284 290 291 293 288 291 291 287 287 286
254 260 264 259 257 258 258 256 253 252 254 256 256 255 258 262 259 257 264 268 269 271 271 274 273 274 276 281 277 287 293 294 296 296 297 296 295 294 291 289 286 283 282
274 270 265 259 266 270 268 264 261 255 250 252 254 251 250 254 257 266 268 260 264 273 280 282 283 280 278 279 292 307 301 305 306 306 310 309 307 304 301 297 292 287 284
276 279 283 279 284 279 277 262 253 246 245 250 256 248 244 246 259 254 266 268 272 275 275 269 276 289 291 293 303 301 302 306 306 306 305 304 303 302 301 298 293 290 290
302 301 306 305 308 272 300 276 243 240 234 248 230 234 236 239 253 249 251 256 257 268 280 292 293 305 308 303 307 311 311 309 311 310 309 307 306 304 303 299 295 292 289
344 353 353 318 313 322 295 116 179 142 196 224 186 201 217 233 245 239 262 265 272 279 296 296 299 304 308 314 315 317 318 321 321 321 317 315 313 311 311 304 299 294 291
26 47 10 60 27 11 98 143 148 187 195 161 166 149 214 234 214 212 226 250 274 273 278 294 305 311 313 315 317 321 324 325 326 322 319 319 319 321 317 317 317 309 297
61 38 21 33 13 124 185 127 116 98 99 108 121 128 126 126 166 221 243 250 249 257 279 296 303 306 309 313 319 324 326 324 323 322 321 320 322 325 324 328 329 311 291
88 74 79 84 80 102 101 95 96 100 102 107 110 120 132 158 210 230 245 258 277 286 290 297 304 311 313 316 320 323 327 326 324 326 328 328 328 329 333 338 330 321 320
87 93 87 88 89 94 103 107 112 115 123 130 135 125 118 114 157 303 299 310 311 308 311 308 312 316 316 318 320 321 328 325 328 334 333 331 329 332 340 345 331 322 321
81 85 90 90 89 89 85 87 88 94 102 107 119 105 78 56 35 11 348 337 330 324 323 323 322 321 322 321 324 324 326 327 327 332 334 332 328 330 343 350 340 329 330
86 87 88 87 86 85 83 80 76 75 72 69 57 39 26 3 348 336 335 330 324 322 319 317 321 321 318 320 323 326 328 330 330 332 337 336 330 328 342 350 347 336 331
97 94 91 89 85 79 72 65 59 55 49 33 9 354 338 323 318 318 314 317 322 324 324 322 320 324 326 327 327 329 331 334 335 335 338 338 332 330 339 352 352 345 340
91 85 79 71 62 52 44 35 29 24 13 3 351 347 346 343 337 332 330 328 326 325 323 322 320 320 323 326 327 329 329 332 333 335 338 343 337 334 339 350 360 352 347
324 329 330 333 337 343 345 344 342 342 339 336 336 338 334 331 328 325 323 323 323 322 321 321 322 321 323 325 326 328 329 331 333 333 337 341 339 338 339 347 0 0 352
299 306 310 313 315 316 316 316 317 318 319 319 320 320 320 318 318 318 319 319 318 317 319 319 320 322 322 324 327 327 330 332 333 334 335 338 342 339 342 343 352 359 359
284 288 291 294 295 296 298 299 301 303 305 306 308 309 310 311 312 313 314 315 315 317 319 321 321 321 322 322 323 325 328 330 332 334 335 335 339 339 338 341 342 351 353
275 278 282 285 288 290 292 294 295 296 298 299 300 302 304 305 306 308 309 311 313 315 317 318 320 322 323 322 319 322 325 327 330 334 334 333 335 337 336 337 338 332 344
272 276 280 282 282 284 286 288 290 291 293 294 295 297 298 300 301 302 303 305 308 310 312 315 317 318 319 318 317 319 323 324 328 331 331 331 333 332 333 333 335 332 325
271 274 276 277 280 281 282 284 285 286 288 289 291 293 294 296 297 299 300 302 303 305 308 310 312 313 315 315 314 316 318 322 324 327 328 328 330 330 330 332 329 329 327
270 271 272 274 276 278 280 281 281 282 284 285 287 288 289 291 292 293 295 297 298 300 302 305 307 308 310 311 312 314 315 320 321 321 324 325 326 325 326 326 325 322 321
270 272 273 275 277 277 278 280 281 282 281 282 283 284 285 286 287 288 289 290 292 293 295 297 299 302 305 306 307 310 311 315 317 317 318 320 320 319 319 320 319 316 312
269 271 273 274 276 277 278 278 280 281 282 282 282 281 282 283 284 284 285 284 290 290 291 294 295 298 300 300 303 306 308 312 313 314 315 315 315 315 315 314 312 309 306
272 273 274 275 276 276 277 277 276 279 280 280 279 280 282 283 283 283 283 282 288 287 289 290 293 295 295 296 300 302 305 308 309 311 311 312 312 311 311 311 309 303 298
Height
5690 5692 5694 5695 5696 5698 5700 5702 5704 5707 5710 5714 5716 5718 5722 5724 5727 5729 5732 5733 5733 5732 5733 5732 5731 5729 5730 5728 5725 5723 5719 5717 5717 5716 5713 5709 5705 5701 5700 5698 5695 5692 5690
5684 5684 5685 5685 5686 5688 5690 5691 5694 5697 5699 5702 5704 5707 5711 5714 5716 5718 5720 5722 5724 5724 5724 5723 5722 5721 5720 5718 5715 5714 5710 5707 5705 5704 5700 5697 5694 5692 5688 5686 5683 5678 5675
5678 5678 5679 5679 5679 5679 5680 5681 5682 5685 5687 5691 5694 5696 5699 5703 5706 5708 5710 5712 5713 5713 5713 5712 5712 5711 5709 5705 5704 5703 5700 5696 5693 5692 5690 5686 5683 5679 5677 5673 5670 5666 5662
5672 5673 5672 5672 5672 5671 5671 5671 5672 5674 5676 5679 5682 5686 5689 5692 5694 5698 5700 5702 5702 5703 5703 5703 5702 5701 5699 5696 5694 5691 5687 5683 5679 5677 5674 5670 5665 5662 5659 5655 5653 5648 5646
5665 5664 5663 5662 5661 5660 5660 5659 5660 5663 5666 5669 5672 5675 5681 5685 5687 5688 5690 5693 5694 5695 5695 5694 5693 5691 5689 5686 5684 5679 5677 5675 5671 5667 5662 5658 5654 5648 5642 5637 5632 5628 5626
5658 5657 5655 5653 5650 5648 5645 5641 5644 5648 5654 5661 5664 5667 5672 5678 5681 5682 5684 5685 5686 5687 5686 5684 5683 5681 5679 5677 5675 5673 5671 5667 5664 5660 5655 5650 5643 5637 5631 5623 5616 5609 5606
5655 5653 5649 5648 5645 5643 5637 5631 5634 5644 5650 5654 5651 5660 5666 5672 5675 5676 5677 5678 5678 5678 5677 5677 5676 5674 5673 5672 5670 5667 5664 5660 5655 5650 5644 5637 5630 5622 5616 5607 5598 5590 5584
5653 5650 5649 5646 5643 5639 5635 5635 5636 5640 5641 5647 5651 5658 5663 5666 5669 5670 5670 5672 5673 5673 5672 5674 5673 5671 5669 5666 5664 5660 5655 5648 5643 5637 5629 5621 5613 5605 5596 5586 5576 5569 5562
5651 5651 5648 5645 5643 5641 5638 5640 5641 5643 5646 5649 5653 5654 5659 5662 5666 5668 5667 5668 5669 5670 5670 5670 5669 5667 5665 5663 5658 5653 5646 5639 5632 5623 5615 5607 5598 5588 5578 5567 5555 5544 5538
5652 5651 5650 5648 5646 5646 5645 5644 5642 5644 5647 5652 5655 5659 5660 5663 5665 5666 5667 5667 5668 5666 5666 5665 5664 5662 5660 5656 5651 5646 5639 5633 5624 5615 5607 5597 5587 5576 5563 5549 5535 5523 5508
5654 5654 5653 5652 5651 5651 5652 5652 5653 5654 5656 5657 5659 5661 5662 5663 5664 5665 5665 5665 5665 5664 5662 5661 5659 5656 5653 5649 5644 5639 5632 5624 5616 5608 5599 5587 5576 5564 5549 5532 5515 5503 5493
5661 5659 5659 5660 5659 5659 5660 5659 5659 5659 5660 5660 5661 5661 5662 5663 5663 5664 5663 5662 5661 5661 5658 5657 5653 5649 5646 5642 5636 5629 5623 5616 5607 5597 5588 5578 5568 5556 5541 5524 5505 5492 5481
5666 5666 5666 5665 5665 5665 5665 5665 5664 5664 5664 5663 5663 5663 5663 5663 5662 5661 5660 5660 5658 5656 5653 5650 5646 5643 5639 5634 5627 5622 5614 5606 5598 5590 5580 5570 5559 5548 5534 5516 5497 5485 5474
5670 5669 5669 5668 5667 5667 5667 5666 5665 5665 5664 5664 5663 5663 5663 5662 5661 5659 5657 5655 5653 5650 5647 5644 5640 5635 5630 5625 5619 5613 5606 5599 5592 5582 5572 5562 5551 5540 5528 5512 5492 5479 5469
5673 5672 5671 5671 5670 5669 5668 5668 5667 5665 5664 5663 5662 5660 5659 5658 5656 5654 5652 5650 5646 5643 5639 5636 5631 5627 5622 5617 5611 5605 5598 5590 5582 5574 5565 5554 5544 5533 5522 5508 5491 5476 5466
5675 5674 5673 5672 5671 5670 5669 5668 5667 5665 5663 5661 5660 5657 5655 5653 5651 5649 5646 5643 5640 5637 5633 5628 5625 5620 5614 5609 5604 5597 5591 5584 5576 5567 5558 5547 5537 5527 5517 5506 5491 5476 5465
5675 5673 5672 5671 5670 5668 5667 5665 5664 5663 5661 5659 5656 5654 5652 5650 5648 5645 5641 5638 5634 5631 5627 5622 5618 5613 5608 5602 5596 5589 5583 5576 5568 5560 5550 5541 5531 5522 5513 5502 5490 5478 5466
5672 5671 5670 5668 5667 5665 5663 5662 5660 5658 5656 5654 5652 5650 5647 5645 5642 5639 5635 5631 5628 5624 5620 5615 5610 5605 5600 5594 5587 5580 5572 5566 5559 5551 5543 5534 5525 5517 5509 5500 5490 5479 5468
5667 5666 5665 5663 5662 5660 5658 5657 5654 5652 5650 5648 5645 5643 5640 5638 5635 5632 5628 5624 5620 5615 5611 5607 5602 5596 5590 5585 5579 5572 5564 5558 5551 5544 5536 5528 5520 5511 5503 5495 5487 5479 5470
5661 5660 5658 5657 5655 5653 5652 5649 5647 5645 5643 5640 5637 5635 5632 5629 5626 5622 5618 5614 5610 5606 5601 5596 5591 5586 5581 5575 5568 5562 5555 5549 5543 5536 5529 5521 5513 5505 5497 5490 5483 5476 5469
5653 5652 5650 5649 5647 5645 5643 5641 5639 5636 5634 5631 5629 5626 5623 5619 5616 5612 5608 5604 5599 5595 5590 5585 5580 5575 5570 5565 5560 5552 5546 5540 5534 5527 5520 5513 5507 5500 5492 5484 5478 5473 5466
5644 5642 5641 5639 5637 5635 5632 5631 5629 5626 5624 5621 5618 5615 5611 5608 5604 5600 5596 5591 5587 5583 5578 5574 5569 5564 5559 5554 5549 5543 5536 5529 5523 5517 5511 5504 5498 5491 5485 5479 5473 5467 5461
5633 5632 5630 5628 5626 5623 5621 5619 5617 5614 5612 5609 5606 5602 5599 5595 5592 5587 5583 5579 5574 5570 5565 5560 5556 5551 5546 5542 5536 5531 5525 5519 5513 5506 5501 5494 5489 5484 5477 5472 5466 5461 5456
5619 5618 5617 5615 5613 5611 5609 5606 5603 5601 5598 5595 5592 5589 5585 5581 5578 5574 5570 5565 5561 5556 5552 5547 5543 5538 5533 5528 5523 5518 5513 5508 5503 5497 5490 5485 5479 5474 5469 5463 5459 5455 5450
5604 5603 5601 5600 5598 5596 5593 5591 5588 5586 5583 5580 5577 5573 5570 5566 5562 5558 5554 5549 5545 5541 5537 5533 5529 5525 5520 5515 5510 5505 5500 5496 5491 5486 5480 5474 5469 5464 5459 5455 5450 5446 5442
5588 5587 5585 5583 5581 5579 5576 5574 5571 5569 5566 5563 5560 5557 5553 5550 5546 5541 5537 5533 5530 5525 5521 5517 5514 5510 5506 5501 5497 5492 5487 5482 5478 5474 5469 5463 5458 5453 5448 5444 5440 5436 5433